Regional Weather Roundup
Issued by NWS Charleston, SC

Current Version | Previous Version | Graphics & Text | Print | Product List | Glossary On
Versions: 1 2 3 4 5 6 7 8 9 10 11 12 13 14 15 16 17 18 19 20 21 22 23 24 25 26 27 28 29 30 31 32 33 34 35 36 37 38 39 40 41 42 43 44 45 46 47 48 49 50
616
ASUS42 KCHS 240928
RWRCHS

REGIONAL WEATHER ROUNDUP
NATIONAL WEATHER SERVICE CHARLESTON SC
500 AM EDT SUN JUL 24 2016

NOTE: "FAIR" INDICATES FEW OR NO CLOUDS BELOW 12,000 FEET WITH NO
SIGNIFICANT WEATHER AND/OR OBSTRUCTIONS TO VISIBILITY.

NOT ALL STATIONS ARE QUALITY CONTROLLED. USE DATA WITH CAUTION...
ESPECIALLY DEWPOINT OBSERVATIONS.

SCZ027-030-031-034>040-042>050-241000-
...SOUTHEAST SOUTH CAROLINA...

CITY           SKY/WX    TMP DP  RH WIND       PRES   REMARKS
N CHARLESTON   PTCLDY    79  75  87 CALM      30.00F
WATERFRONT PRK   N/A     82  78  88 CALM      29.98F HX  91
MOUNT PLEASANT FAIR      79  75  89 CALM      30.00F
JOHNS ISLAND   FAIR      79  77  94 CALM      30.00F
PINOPOLIS        N/A     81  77  89 SW7       29.93F
MONCKS CORNER  FAIR      73  72  94 CALM      30.00S
SUMMERVILLE    NOT AVBL
BEAUFORT MCAS  CLEAR     80  75  84 CALM      30.00F
BEAUFORT ARPT  FAIR      81  77  89 SW3       30.00S
HILTON HEAD IS CLEAR     81  77  89 SW3       30.01S
WALTERBORO     SUNNY     79  79 100 SW3       30.01S
ALLENDALE      FAIR      75  72  88 CALM      30.00S

...SOUTHERN MIDLANDS AND PEE DEE...

CITY           SKY/WX    TMP DP  RH WIND       PRES   REMARKS
GEORGETOWN     FAIR      75  73  94 SW3       30.01S
KINGSTREE      FAIR      73  72  94 CALM      30.00S
ORANGEBURG     CLEAR     76  72  87 S3        30.00S
BARNWELL       NOT AVBL
AIKEN          FAIR      72  68  88 CALM      30.04S
MANNING        FAIR      77  72  83 SW3       30.00S
COLUMBIA       CLEAR     75  72  90 CALM      29.99S
SUMTER         CLEAR     77  72  83 SW6       29.97F
FLORENCE       CLEAR     78  75  90 SW3       30.00S
MYRTLE BEACH   PTCLDY    81  72  74 SW5       30.02S
N MYRTLE BEACH PTCLDY    81  76  84 SW6       30.00F

$$

GAZ063-065-086>088-099>101-113>116-118-119-134>141-150-241000-
...SOUTHEAST GEORGIA...

CITY           SKY/WX    TMP DP  RH WIND       PRES   REMARKS
SAVANNAH ARPT  CLEAR     78  73  84 SW5       30.00F
HUNTER AAF     CLEAR     79  77  94 SW5       29.98F
FORT STEWART   CLEAR     76  72  88 CALM      29.98F
STATESBORO     CLEAR     74  74  97 CALM      30.00S
SYLVANIA       NOT AVBL
CLAXTON        FAIR      73  73 100 CALM      30.00S

...CSRA...CENTRAL AND FAR SOUTHEAST GEORGIA...

CITY           SKY/WX    TMP DP  RH WIND       PRES   REMARKS
THOMSON        PTCLDY    76  74  91 CALM      30.06R
AUGUSTA-BUSH   PTCLDY    74  71  91 CALM      29.99F
AUGUSTA-DANIEL CLEAR     78  70  76 S3        30.02S
SWAINSBORO     FAIR      72  70  94 CALM      30.01F
VIDALIA        CLEAR     73  70  88 CALM      30.01S
EASTMAN        FAIR      75  75 100 CALM      30.03S
HAZLEHURST     FAIR      74  74 100 CALM      30.00R
ALMA           MOCLDY    72  71  97 CALM      30.00S
WAYCROSS       PTCLDY    77  75  95 CALM      30.01R
JESUP          FAIR      73  73 100 CALM      30.01R
BAXLEY         FAIR      73  73 100 CALM      30.00S
BRUNSWICK      PTCLDY    75  75 100 CALM      30.01S
SAINT SIMONS   CLEAR     80  74  81 S5        30.00F

$$

SCZ027-028-034-036>038-045-046-048>050-GAZ119-141-241000-
...LAKE AND SUPPLEMENTAL COASTAL OBSERVATIONS...

STATION/POSITION TIME  TEMP    WIND        PRES    WAVE   SWELL
                       AIR SEA DIR/SP/G            HT/PER HT/PER/DIR
                 (UTC) (F)     (DEG/KT/KT) (MB)    (FT/S) (FT/S/D)
WINYAH BAY       0800   80     270/  3     1016.0S
LAKE MURRAY      0800   83     200/  4/  6 1015.2F
ACE BASIN NERRS  0800   80        CALM     1016.0S
FORT PULASKI     0900   81 88  240/  4/  6 1016.3F
SAPELO ISLAND    0900   80     200/  5     1016.0S

$$

ANZ835-935-AMZ111-154-330-350-352-354-370-450-454-472-241000-
...C-MAN AND BUOY OBSERVATIONS...

STATION/POSITION TIME  TEMP    WIND        PRES    WAVE   SWELL
                       AIR SEA DIR/SP/G            HT/PER HT/PER/DIR
                 (UTC) (F)     (DEG/KT/KT) (MB)    (FT/S) (FT/S/D)
BUOY 41004       0850   85 86  240/ 12/ 14 1015.7F   3/ 8   2/120/ 8
BUOY 41008       0850   84 86  200/ 12/ 14 1015.7F   3/ 4   2/100/ 9
FOLLY BEACH CMAN 0900   83     230/  6/  8 1016.0F
CAPERS NEARSHORE 0908   84 83  240/ 12/ 16 1015.8F
FRIPP NEARSHORE  0908   85 86  240/ 12/ 16 1015.0F


STATION/POSITION TIME  TEMP    WIND        PRES    WAVE   SWELL
                       AIR SEA DIR/SP/G            HT/PER HT/PER/DIR
                 (UTC) (F)     (DEG/KT/KT) (MB)    (FT/S) (FT/S/D)
5E ST. MARYS GA  0901      86                N/A     3/ 9
FRYING PAN BUOY  0900   83 85  230/ 14/ 19 1016.0F
BUOY 41025       0850   83 85  240/ 14/ 17 1016.1F   3/ 4   2/140/ 9
CAPE LOOKOUT NC  0900   83     230/  7/  9 1015.8F
BUOY 41002       0850   82 84   CALM  /  2 1017.2R   2/ 9   2/130/ 9
BUOY 41010       0850   84 87   10/  2/  4 1016.7F   3/ 9   3/ 80/ 9
ST AUGUSTINE FL  0900   76 86  210/  4/  4 1017.4R


$$




USA.gov is the U.S. government's official web portal to all federal, state and local government web resources and services.